Regional Weather Roundup
Issued by NWS

Home | Current Version | Previous Version | Text Only | Print | Product List | Glossary Off
Versions: 1 2 3 4 5 6 7 8 9 10 11 12 13 14 15 16 17 18 19 20 21 22 23 24 25 26 27 28 29 30 31 32 33 34 35 36 37 38 39 40 41 42 43 44 45 46 47 48 49 50

000
ASUS45 KBOI 061110
RWRID
WEATHER ROUNDUP FOR IDAHO
NATIONAL WEATHER SERVICE BOISE ID
400 AM MST FRI MAR 06 2015

NOTE: "FAIR" INDICATES FEW OR NO CLOUDS BELOW 12000 FEET
WITH NO SIGNIFICANT WEATHER AND/OR OBSTRUCTIONS TO VISIBILITY

IDZ012-014-061200-
SOUTHWEST IDAHO


CITY           SKY/WX    TMP DP  RH WIND       PRES   REMARKS
BOISE          CLEAR     32  19  58 CALM      30.39S
CALDWELL       CLEAR     27  14  59 CALM      30.42S
MOUNTAIN HOME  CLEAR     27  17  65 N3        30.38F
$$

IDZ016-017-061200-
SOUTHCENTRAL IDAHO


CITY           SKY/WX    TMP DP  RH WIND       PRES   REMARKS
BURLEY         CLEAR     25  15  66 CALM      30.36S
JEROME         CLEAR     32  17  54 SE3       30.37S
TWIN FALLS     CLEAR     35  17  47 S12       30.36S WCI  27
$$

IDZ019>023-061200-
SOUTHEAST IDAHO


CITY           SKY/WX    TMP DP  RH WIND       PRES   REMARKS
IDAHO FALLS    CLEAR     24  18  77 CALM      30.38R
POCATELLO      CLEAR     31  21  66 SW6       30.38S WCI  25
REXBURG        CLEAR     22  18  85 CALM      30.37S
$$

IDZ006-010-011-018-031-032-061200-
CENTRAL IDAHO MOUNTAINS


CITY           SKY/WX    TMP DP  RH WIND       PRES   REMARKS
MCCALL         CLEAR     22  16  78 CALM      30.38F
HAILEY         CLEAR     30  18  59 NW9       30.38R WCI  22
STANLEY          N/A     11   3  70 CALM      30.43S
SALMON         CLEAR     19  16  86 CALM      30.39R
CHALLIS        CLEAR     24  13  62 CALM      30.38S
$$

IDZ002-004-006-007-026-061200-
NORTHERN IDAHO


CITY           SKY/WX    TMP DP  RH WIND       PRES   REMARKS
LEWISTON       CLEAR     32  25  75 SE7       30.40S WCI  26
LOWELL           N/A     28  24  85 NW3       30.49S
COEUR D`ALENE  CLEAR     32  25  74 SE9       30.35S WCI  24
MULLAN PASS    PTCLDY    29  15  56 W5        30.29S WCI  24
$$



USA.gov is the U.S. government's official web portal to all federal, state and local government web resources and services.